Weather History for Columbia, MO

Change the Weather History Date:

Wednesday, July 31, 2013

  Actual Average Record
Temperature  
Mean Temperature 72 °F 77 °F  
Max Temperature 79 °F 88 °F 108 °F (1980)
Min Temperature 65 °F 67 °F 50 °F (1971)
Degree Days  
Heating Degree Days 0 0  
Month to date heating degree days 0 0  
Since 1 June heating degree days 6 11  
Since 1 July heating degree days 0 0  
Cooling Degree Days 7 12  
Month to date cooling degree days 322 382  
Year to date cooling degree days 723 733  
Since 1 June cooling degree days 589 630  
Growing Degree Days 22 (Base 50)    
Moisture  
Dew Point 68 °F    
Average Humidity 85    
Maximum Humidity 100    
Minimum Humidity 69    
Precipitation  
Precipitation T in 0.13 in 1.98 in (1928)
Month to date precipitation 2.45 4.37  
Year to date precipitation 31.21 25.39  
Snow  
Snow 0.00 in 0.00 in 0.00 in (2013)
Month to date snowfall 0.0 0.0  
Since 1 June snowfall 0.0 0.0  
Since 1 July snowfall 0.0 0.0  
Snow Depth 0.00 in    
Sea Level Pressure  
Sea Level Pressure 30.05 in    
Wind  
Wind Speed 7 mph (North)    
Max Wind Speed 16 mph    
Max Gust Speed 20 mph    
Visibility 8 miles    
Events      
T = Trace of Precipitation, MM = Missing Value Source: NWS Daily Summary

Daily Weather History Graph

Daily Weather History Graph

Search for Another Location

Airport:

Trip Planner

Search our weather history database for the weather conditions in past years. The results will help you decide how hot, cold, wet, or windy it might be!

Date:

Astronomy

Jul. 31, 2013 Rise Set
Actual Time 6:09 AM CDT 8:20 PM CDT
Civil Twilight 5:39 AM CDT 8:50 PM CDT
Nautical Twilight 5:03 AM CDT 9:26 PM CDT
Astronomical Twilight 4:23 AM CDT 10:06 PM CDT
Moon 1:04 AM CDT (7/31) 3:37 PM CDT (7/31)
Length of Visible Light 15h 10m
Length of Day
14h 11m
Waning Crescent, 31% of the Moon is Illuminated
Jul 31
Waning Crescent
Aug 6
New
Aug 14
First Quarter
Aug 20
Full
Aug 28
Last Quarter

Hourly Weather History & Observations

Time (CDT) Temp. Dew Point Humidity Pressure Visibility Wind Dir Wind Speed Gust Speed Precip Events Conditions
12:04 AM 72.0 °F 70.0 °F 93% 30.04 in 10.0 mi East 5.8 mph - N/A   Mostly Cloudy
12:54 AM 73.0 °F 71.1 °F 93% 30.03 in 10.0 mi North 3.5 mph - N/A   Overcast
1:54 AM 71.1 °F 70.0 °F 96% 30.02 in 9.0 mi NNE 3.5 mph - 0.00 in   Mostly Cloudy
2:07 AM 70.0 °F 69.1 °F 97% 30.04 in 1.5 mi North 4.6 mph - N/A   Scattered Clouds
2:18 AM 71.1 °F 70.0 °F 96% 30.04 in 2.0 mi North 5.8 mph - N/A   Mostly Cloudy
2:26 AM 72.0 °F 70.0 °F 93% 30.04 in 8.0 mi NE 4.6 mph - N/A   Mostly Cloudy
2:54 AM 72.0 °F 70.0 °F 93% 30.01 in 10.0 mi Calm Calm - N/A   Overcast
3:30 AM 71.1 °F 70.0 °F 96% 30.04 in 10.0 mi Calm Calm - N/A   Overcast
3:54 AM 72.0 °F 70.0 °F 93% 30.01 in 10.0 mi Calm Calm - N/A   Overcast
4:33 AM 72.0 °F 70.0 °F 93% 30.04 in 8.0 mi North 6.9 mph - N/A   Mostly Cloudy
4:41 AM 72.0 °F 71.1 °F 97% 30.04 in 5.0 mi North 6.9 mph - N/A   Overcast
4:49 AM 71.6 °F 71.6 °F 100% 30.05 in 4.0 mi North 5.8 mph - N/A   Overcast
4:54 AM 72.0 °F 71.1 °F 97% 30.02 in 4.0 mi North 5.8 mph - N/A   Overcast
5:41 AM 72.0 °F 71.1 °F 97% 30.05 in 2.5 mi North 6.9 mph - N/A   Overcast
5:54 AM 72.0 °F 70.0 °F 93% 30.03 in 2.0 mi North 10.4 mph - N/A   Overcast
6:20 AM 71.1 °F 70.0 °F 96% 30.06 in 4.0 mi North 9.2 mph - N/A   Overcast
6:40 AM 71.1 °F 70.0 °F 96% 30.06 in 4.0 mi NNE 8.1 mph - N/A   Overcast
6:51 AM 71.6 °F 69.8 °F 94% 30.06 in 4.0 mi North 6.9 mph - N/A   Overcast
6:54 AM 71.1 °F 70.0 °F 96% 30.04 in 4.0 mi North 6.9 mph - N/A   Overcast
7:54 AM 71.1 °F 68.0 °F 90% 30.05 in 7.0 mi NNE 8.1 mph - N/A   Overcast
8:54 AM 72.0 °F 68.0 °F 87% 30.08 in 10.0 mi North 10.4 mph - N/A   Overcast
8:58 AM 72.0 °F 68.0 °F 87% 30.10 in 10.0 mi North 6.9 mph - N/A   Overcast
9:54 AM 75.9 °F 68.0 °F 76% 30.08 in 10.0 mi NNW 9.2 mph - N/A   Scattered Clouds
10:54 AM 78.1 °F 69.1 °F 74% 30.07 in 10.0 mi NNE 8.1 mph - N/A   Mostly Cloudy
10:57 AM 78.1 °F 69.1 °F 74% 30.09 in 10.0 mi North 9.2 mph - N/A   Mostly Cloudy
11:46 AM 77.0 °F 66.9 °F 71% 30.09 in 10.0 mi NW 10.4 mph - N/A   Overcast
11:54 AM 77.0 °F 66.9 °F 71% 30.07 in 10.0 mi NNW 12.7 mph - N/A   Overcast
12:54 PM 73.9 °F 66.0 °F 76% 30.08 in 10.0 mi NW 10.4 mph - N/A   Overcast
1:54 PM 75.9 °F 66.0 °F 71% 30.07 in 10.0 mi NNW 10.4 mph - N/A   Overcast
2:54 PM 77.0 °F 66.9 °F 71% 30.07 in 10.0 mi NNW 6.9 mph - N/A   Scattered Clouds
3:04 PM 77.0 °F 66.9 °F 71% 30.09 in 10.0 mi NNW 10.4 mph - N/A   Mostly Cloudy
3:31 PM 78.1 °F 66.9 °F 68% 30.09 in 10.0 mi NNW 11.5 mph - N/A   Overcast
3:54 PM 75.9 °F 66.0 °F 71% 30.07 in 10.0 mi NW 11.5 mph - N/A   Overcast
4:54 PM 77.0 °F 66.9 °F 71% 30.04 in 10.0 mi North 6.9 mph - N/A   Overcast
5:40 PM 75.9 °F 66.0 °F 71% 30.06 in 10.0 mi North 12.7 mph - N/A   Overcast
5:50 PM 75.2 °F 66.2 °F 73% 30.05 in 10.0 mi North 8.1 mph - N/A   Overcast
5:54 PM 75.9 °F 66.0 °F 71% 30.03 in 10.0 mi North 9.2 mph - N/A   Overcast
6:54 PM 73.9 °F 64.9 °F 73% 30.02 in 10.0 mi North 10.4 mph - N/A   Overcast
7:54 PM 73.0 °F 64.0 °F 73% 30.04 in 10.0 mi North 5.8 mph - N/A   Overcast
8:21 PM 70.0 °F 64.0 °F 81% 30.07 in 10.0 mi North 5.8 mph - N/A   Scattered Clouds
8:54 PM 70.0 °F 64.0 °F 81% 30.06 in 10.0 mi NNW 3.5 mph - N/A   Clear
9:54 PM 66.9 °F 63.0 °F 87% 30.06 in 10.0 mi Calm Calm - N/A   Clear
10:54 PM 64.9 °F 63.0 °F 93% 30.06 in 7.0 mi WSW 3.5 mph - N/A   Clear
11:54 PM 66.0 °F 63.0 °F 90% 30.07 in 8.0 mi West 3.5 mph - N/A   Clear